Home   Weather   Lansing   Past weeks

Flag for USA Past Weather in Lansing, Michigan, USA — Yesterday and Last 2 Weeks

Now
47 °F

Overcast.


Feels Like: 43 °F
Forecast: 41 / 54 °F
Wind: 8 mph from Northeast

Location: Capital City Airport

Current Time: Apr 29, 2017 at 9:20:11 am

Latest Report: Apr 29, 2017 at 8:37 am


Visibility: 10 mi

Pressure: 30.16 "Hg

Humidity: 69%

Dew Point: 37 °F

Location of LansingLocation

Past Weather in Lansing — Graph

°F

Lansing Temperature Yesterday

Maximum temperature yesterday: 64 °F (at 2:53 pm)
Minimum temperature yesterday: 45 °F (at 4:53 am)
Average temperature yesterday: 54 °F

High & Low Weather Summary for the Past Weeks

 TemperatureHumidityPressure
High83 °F (Apr 15, 3:53 pm)93% (Apr 20, 1:27 pm)30.37 "Hg (Apr 20, 1:27 pm)
Low36 °F (Apr 22, 4:53 am)19% (Apr 24, 4:53 pm)29.40 "Hg (Apr 27, 5:53 am)
Average57 °F60%29.95 "Hg
* Reported Apr 14 7:53 am — Apr 29 7:53 am, Lansing, Weather by CustomWeather, © 2017

Note: Actual official high and low records may vary slightly from our data, if they occured in-between our weather recording intervals... More about our weather records

Advertising

Lansing Weather History for the Previous 24 Hours

Scroll right to see more
 ConditionsComfort  
Time TempWeatherWind HumidityBarometerVisibility
7:53 am
Sat, Apr 29
46 °FMore clouds than sun.10 mph71%30.16 "Hg10 mi
6:53 am46 °FOvercast.8 mph77%30.12 "Hg10 mi
5:53 am45 °FPassing clouds.8 mph80%30.08 "Hg10 mi
4:53 am48 °FPassing clouds.12 mph74%30.05 "Hg10 mi
3:53 am51 °FPartly cloudy.17 mph71%30.00 "Hg10 mi
3:30 am52 °FMostly cloudy.10 mph69%30.02 "Hg10 mi
2:53 am55 °FOvercast.8 mph64%30.00 "Hg10 mi
1:53 am56 °FMostly cloudy.5 mph72%29.99 "Hg10 mi
12:53 am57 °FOvercast.7 mph67%30.00 "Hg10 mi
11:53 pm
Fri, Apr 28
57 °FMostly cloudy.8 mph67%29.97 "Hg10 mi
10:53 pm58 °FOvercast.9 mph62%29.97 "Hg10 mi
9:53 pm59 °FOvercast.7 mph54%29.93 "Hg10 mi
8:53 pm59 °FOvercast.7 mph51%29.92 "Hg10 mi
7:53 pm60 °FOvercast.6 mph47%29.91 "Hg10 mi
6:53 pm61 °FOvercast.7 mph48%29.91 "Hg10 mi
5:53 pm62 °FOvercast.10 mph46%29.93 "Hg10 mi
4:53 pm62 °FOvercast.9 mph46%29.94 "Hg10 mi
3:53 pm62 °FPartly sunny.10 mph46%29.97 "Hg10 mi
2:53 pm64 °FOvercast.20 mph43%29.96 "Hg10 mi
1:53 pm62 °FMore clouds than sun.14 mph46%29.96 "Hg10 mi
12:53 pm61 °FPassing clouds.12 mph50%29.95 "Hg10 mi
11:53 am59 °FScattered clouds.10 mph54%29.97 "Hg10 mi
10:53 am55 °FPartly sunny.15 mph59%29.98 "Hg10 mi
10:44 am55 °FPartly sunny.12 mph59%29.97 "Hg10 mi
9:53 am51 °FPartly sunny.10 mph63%29.96 "Hg10 mi
Weather by CustomWeather, © 2017

See weather overviewHow to use our weather pages